SCP
-0 0 0 0 0 0 0 -0 -0 -0 -0 -0 -0 -0 -0 -0 -0 -0 -0 -0 -0 -0 -0 -0 -0 -0 -0 -0 -0 -0 0 0 -0 -0 -0 0 -0 -0 -0 -0 -0 -0 -0
-0 0 0 0 0 0 0 -0 0 0 0 0 -0 -0 -0 -0 -0 -0 -0 -0 -0 -0 -0 -0 -0 -0 -0 -0 -0 -0 -0 -0 -0 0 -0 0 0 -0 -0 -0 -0 -0 -0
-0 0 0 0 0 0 0 0 0 0 0 0 0 -0 -0 -0 -0 -0 0 0 -0 0 -0 0 0 0 0 0 0 0 0 -0 -0 -0 0 -0 0 -0 -0 -0 -0 -0 -0
0 0 0 0 0 0 0 0 0 0 0 0 0 0 0 0 0 0 0 0 0 0 0 0 0 0 0 0 0 0 0 -0 -0 -0 0 -0 -0 -0 -0 -0 -0 -0 -0
-0 0 0 0 0 0 0 0 0 0 0 0 0 0 0 0 0 0 0 0 0 0 0 0 0 0 0 0 0 0 0 -0 -0 -0 0 0 0 -0 -0 -0 -0 -0 -0
0 0 0 0 0 0 0 0 0 0 0 0 0 0 0 0 0 0 0 0 0 0 0 0 0 0 0 0 0 0 -0 -0 -0 0 -0 -0 0 -0 -0 -0 -0 -0 -0
0 0 0 0 0 0 0 0 0 0 0 0 0 0 0 0 0 0 0 0 0 0 0 0 0 0 0 0 0 0 -0 -0 0 0 -0 -0 -0 -0 -0 -0 -0 -0 -0
0 0 0 0 0 0 0 0 0 0 0 0 0 0 0 0 0 0 0 0 0 0 0 0 0 0 0 0 0 0 0 -0 0 0 -0 0 -0 -0 -0 -0 -0 -0 -0
0 0 0 0 0 0 0 0 0 0 0 0 0 0 0 0 0 0 0 0 0 0 0 0 0 0 0 0 0 0 0 0 0 0 0 0 -0 -0 -0 -0 0 0 0
0 0 0 0 0 0 0 0 0 0 0 0 0 0 0 0 0 0 0 0 0 0 0 0 0 0 0 0 0 0 0 -0 -0 0 0 0 0 0 0 0 -0 0 0
0 0 0 0 0 0 0 0 0 0 0 0 0 0 0 0 0 0 0 0 0 0 0 0 0 0 0 0 0 0 0 0 0 0 0 0 0 0 0 0 0 0 0
0 0 0 0 0 0 0 0 0 0 0 0 0 0 0 0 0 0 0 0 0 0 0 0 0 0 0 0 0 0 0 0 0 0 0 0 0 0 0 0 0 0 0
0 0 0 0 0 0 0 0 -0 0 0 0 0 0 0 0 0 0 0 0 0 0 0 0 0 0 0 0 0 0 0 0 0 0 0 0 0 0 0 0 0 0 0
0 0 0 0 0 0 0 0 0 0 0 0 0 0 0 0 0 0 0 0 0 0 0 0 0 0 0 0 0 0 0 0 0 0 0 0 -0 0 0 0 0 0 0
0 0 0 0 0 0 0 0 0 0 0 0 0 0 0 0 0 0 0 0 0 0 0 0 0 0 0 0 0 0 0 0 0 0 0 0 0 0 0 0 0 0 0
0 0 0 0 0 0 0 0 0 0 0 0 0 0 0 0 0 0 0 0 0 0 0 0 0 0 0 0 0 0 0 0 0 0 0 0 0 0 0 0 0 0 0
0 0 0 0 0 0 0 0 0 0 0 0 0 0 0 0 0 0 0 0 0 0 0 0 -0 0 0 0 0 0 0 0 0 0 0 0 0 0 0 0 0 0 0
0 0 0 0 0 0 0 0 0 0 0 0 0 0 0 0 0 0 0 0 0 0 -0 -0 -0 -0 -0 -0 0 0 0 0 0 0 0 0 0 0 0 0 0 0 0
0 0 0 0 0 0 0 0 0 0 0 0 0 0 0 0 0 0 0 0 0 0 0 -0 -0 -0 -0 -0 -0 0 0 0 0 0 0 0 0 0 0 0 0 0 0
0 0 0 0 0 0 0 0 0 0 0 0 0 0 0 0 0 0 0 0 0 0 0 -0 -0 -0 -0 -0 -0 0 0 0 0 0 0 0 0 0 0 0 0 0 0
0 0 0 0 0 0 0 0 0 0 0 0 0 0 0 0 0 0 0 0 0 0 0 -0 -0 -0 -0 -0 -0 -0 0 0 0 0 0 0 0 0 0 0 0 0 0
0 0 0 0 0 0 0 0 0 0 0 0 0 0 0 0 0 0 0 0 0 0 0 -0 -0 -0 0 0 0 -0 -0 0 0 0 0 0 0 0 0 0 0 0 0
0 0 0 0 0 0 0 0 0 0 0 0 0 0 0 0 0 0 0 0 0 0 0 0 -0 0 0 0 0 0 0 -0 0 0 0 0 0 0 0 0 0 0 0
0 0 0 0 0 0 0 0 0 0 0 0 0 0 0 0 0 0 0 0 0 0 0 0 0 0 0 0 0 0 0 0 0 0 0 0 0 0 0 0 0 0 0
0 0 0 0 0 0 0 0 0 0 0 0 0 0 0 0 0 0 0 0 0 0 0 0 0 0 0 0 0 0 0 0 0 0 0 0 0 0 0 0 0 0 0
0 0 0 0 0 0 0 0 0 0 0 0 0 0 0 0 0 0 0 0 0 0 0 0 0 0 0 0 0 0 0 0 0 0 0 0 0 0 0 0 0 0 0
Wind_Speed_500mb
8 8 14 10 9 11 15 13 16 17 13 10 12 16 17 10 17 24 23 21 24 24 24 23 25 26 27 28 31 36 41 45 43 44 47 48 41 41 39 32 31 31 32
11 11 13 13 11 7 12 13 18 19 15 13 10 7 7 15 10 11 12 15 15 18 18 17 18 20 21 22 27 31 37 43 46 41 31 43 42 36 39 37 28 32 32
13 1 16 14 11 12 12 13 17 19 18 16 15 14 12 13 13 12 11 8 12 13 17 17 16 15 17 19 22 27 33 37 39 36 27 34 35 38 33 31 27 23 29
10 15 8 15 13 13 12 13 15 16 17 17 17 17 17 17 16 14 12 10 8 9 10 12 15 16 15 15 17 22 28 32 32 32 21 24 28 39 35 29 25 24 17
23 16 5 11 11 12 12 12 12 13 14 15 16 16 16 16 16 16 17 16 13 10 10 10 11 13 15 15 15 16 22 28 27 23 23 22 22 32 36 32 25 24 21
18 6 14 12 12 13 13 13 11 12 13 13 14 15 15 16 16 17 19 20 19 18 17 16 15 14 17 16 16 16 14 18 22 23 15 22 20 26 29 33 28 23 22
20 2 13 16 17 18 19 19 18 18 20 20 19 16 16 16 15 16 17 18 19 19 21 21 22 22 22 21 18 16 13 15 19 14 10 17 23 23 21 26 28 24 20
9 6 4 16 15 17 18 15 18 17 13 13 15 16 16 14 13 15 16 18 18 23 23 24 25 26 26 26 26 24 18 9 14 12 7 15 20 21 14 17 20 23 20
17 15 3 6 9 10 11 11 9 10 11 12 14 16 15 12 9 8 14 15 17 19 17 19 21 21 24 26 27 27 28 19 6 4 5 17 22 21 13 9 11 13 18
20 20 13 16 6 3 11 8 8 8 10 9 15 16 15 8 10 9 13 13 16 21 17 18 19 19 20 22 24 26 24 22 26 15 18 18 22 20 14 9 10 8 8
20 29 24 17 8 10 7 7 8 10 8 7 8 16 12 12 13 10 12 12 16 18 20 20 19 15 8 14 16 19 17 17 19 17 20 22 25 21 15 13 14 12 10
27 16 29 11 14 7 5 6 5 3 7 5 12 12 6 9 11 13 12 13 13 15 16 19 19 20 19 17 14 12 12 13 13 14 25 26 31 25 18 16 15 17 19
36 25 11 15 12 11 7 11 15 6 4 13 16 5 8 6 6 6 12 14 14 15 16 19 20 23 22 20 17 13 13 12 13 11 23 31 37 30 24 22 19 18 21
39 30 19 17 11 13 12 18 16 13 11 7 9 7 6 8 9 13 16 18 21 22 22 23 24 25 23 21 18 21 19 17 16 18 26 34 40 38 34 30 27 25 22
26 27 26 21 24 18 21 22 20 15 11 7 10 11 12 14 15 15 17 20 23 25 26 27 27 30 28 26 25 25 23 24 23 23 26 35 38 39 35 32 34 31 30
23 23 31 25 25 23 19 19 19 18 9 11 13 15 15 14 14 13 15 21 24 28 29 32 35 36 37 37 35 31 28 27 27 29 29 30 35 37 40 35 32 36 37
25 27 26 30 25 24 23 19 14 14 14 14 13 13 12 11 11 11 14 19 25 29 32 37 40 42 43 44 45 43 37 35 35 34 32 33 36 38 39 39 37 32 36
34 32 34 28 27 27 19 14 15 15 13 10 7 6 5 6 8 10 16 21 26 31 36 40 45 48 50 55 56 50 45 46 45 37 32 35 38 40 41 41 42 42 38
31 35 33 32 28 21 14 17 14 13 10 9 6 6 4 3 7 12 16 20 27 32 35 40 44 49 56 60 59 52 51 46 43 42 43 33 31 35 36 40 48 44 43
29 33 22 30 27 27 25 20 19 16 13 10 11 13 11 14 13 15 18 22 28 33 37 42 46 50 54 58 55 52 48 53 35 21 21 23 33 29 32 42 44 41 38
30 28 25 30 29 25 24 25 17 15 13 15 18 19 17 20 22 24 25 26 29 35 41 44 48 54 60 57 53 52 58 23 37 22 33 30 31 38 25 33 35 40 43
32 30 28 25 27 28 22 17 7 12 12 18 21 28 26 28 27 27 27 32 34 38 44 46 51 56 58 54 49 51 27 52 4 13 18 27 37 43 50 39 43 35 35
33 31 27 28 31 28 22 19 28 29 25 31 30 35 33 30 30 33 35 37 39 43 47 50 53 52 51 53 49 32 23 16 58 62 57 56 51 47 46 49 52 48 49
32 30 29 26 25 27 26 30 31 27 26 19 21 17 16 26 38 37 39 41 47 49 51 53 53 53 53 56 50 44 44 52 59 61 70 70 64 60 54 60 59 59 61
31 28 29 26 26 25 27 32 33 32 32 32 35 38 39 42 32 33 37 46 49 49 54 58 58 56 54 55 55 57 57 58 57 62 71 69 59 48 46 45 54 55 56
28 31 28 32 29 30 33 37 37 37 39 39 35 35 32 31 31 39 43 43 48 57 61 62 59 58 58 59 60 59 60 62 65 61 68 66 66 66 60 60 64 61 55
Wind_Direction_500mb
179 141 137 97 100 73 57 60 65 71 86 93 81 74 56 66 69 68 66 63 63 65 65 64 62 63 62 57 48 53 56 60 61 47 38 27 40 53 58 74 74 71 73
165 120 132 113 99 61 67 71 66 67 73 78 76 71 41 36 63 57 50 56 60 56 59 58 57 57 48 47 47 52 61 65 55 46 29 16 19 50 56 62 74 77 70
167 176 130 118 90 85 88 76 71 70 71 72 68 66 58 46 54 56 49 54 53 49 55 48 45 46 45 44 44 49 56 72 62 60 48 19 25 40 55 58 64 80 76
122 140 104 119 90 96 100 87 79 74 72 71 67 64 61 57 57 55 50 47 59 48 42 49 46 30 36 35 37 48 58 65 57 52 50 36 22 33 44 49 54 57 93
159 186 205 134 100 100 95 92 88 82 74 69 66 60 57 57 57 55 52 51 51 40 27 18 11 10 15 20 26 40 65 69 49 45 10 25 7 23 39 44 48 52 65
169 175 156 137 115 106 102 94 86 82 78 67 61 56 50 47 50 52 47 43 41 39 35 24 13 1 350 2 5 24 42 71 63 46 1 13 356 9 37 37 43 50 56
161 173 128 118 107 103 101 81 87 89 83 73 63 57 53 52 50 47 45 41 36 34 34 30 24 21 17 11 4 10 27 76 65 47 327 340 333 355 28 35 38 40 48
132 143 131 127 117 110 111 95 93 89 74 57 54 47 43 44 44 47 52 52 41 34 34 32 30 27 25 24 19 13 8 12 94 47 327 318 326 348 11 30 35 37 35
152 166 11 119 107 120 115 107 97 73 61 52 52 28 19 17 21 17 22 26 21 8 4 7 9 11 16 14 16 17 18 19 64 345 350 315 312 323 331 353 19 32 31
164 194 196 163 155 189 154 121 79 36 15 24 18 10 345 355 5 8 1 357 4 354 351 359 1 1 10 6 7 10 26 17 3 39 322 293 298 313 312 307 318 342 5
172 178 150 168 194 189 141 127 47 18 13 346 7 53 47 359 10 21 359 350 353 346 349 351 355 351 355 346 2 10 22 10 351 340 307 297 302 314 307 303 288 296 309
162 160 155 222 220 153 219 118 58 318 92 83 114 115 32 27 36 12 9 8 358 355 352 350 348 340 338 341 337 346 331 333 335 334 317 307 305 309 311 306 296 280 279
178 159 217 247 197 231 242 91 70 83 83 136 113 90 120 80 37 48 20 30 27 22 14 9 8 1 1 358 348 339 313 305 303 287 300 300 295 297 293 296 297 288 271
172 177 123 151 190 182 159 154 169 166 174 151 150 150 122 104 74 55 44 39 35 30 23 17 10 360 359 353 347 326 324 313 293 278 280 279 286 294 292 286 280 283 282
161 173 185 173 175 189 163 184 173 161 188 162 128 118 99 89 81 63 45 38 32 28 21 15 6 0 354 348 339 335 331 323 316 300 288 289 295 302 302 288 279 275 270
172 165 179 175 162 173 175 186 187 184 173 141 128 114 106 94 79 73 50 38 30 25 21 16 9 2 357 350 344 337 328 317 308 303 303 302 302 301 303 302 286 274 269
185 173 164 171 164 170 185 197 174 161 158 144 129 116 104 94 80 56 38 28 21 17 11 7 2 358 353 348 342 335 326 320 315 311 302 294 293 294 296 296 298 289 276
173 167 180 169 167 185 208 174 161 160 153 146 150 140 110 73 46 28 13 6 7 3 359 357 353 350 347 345 339 334 323 316 313 310 310 304 298 295 295 296 294 293 283
178 182 197 166 178 182 174 161 167 166 166 192 208 230 245 320 355 346 348 349 349 349 348 346 344 343 342 340 335 328 320 316 318 309 298 303 312 308 298 294 296 295 287
178 194 203 164 181 189 181 174 189 192 194 207 217 251 285 292 311 321 329 330 332 336 337 337 337 337 336 334 327 323 322 320 321 328 338 326 306 300 300 297 306 305 299
184 188 182 180 189 189 183 199 196 209 228 240 234 249 252 267 297 307 314 317 321 324 328 332 330 329 330 331 325 322 320 334 319 301 286 273 263 271 283 297 295 300 302
188 189 190 186 190 204 197 211 202 268 250 271 274 272 277 281 283 292 297 301 308 314 321 325 326 325 323 325 320 321 322 318 99 273 268 263 274 280 287 277 278 271 274
195 193 194 198 203 211 225 200 218 217 225 238 262 280 283 281 286 290 294 298 303 310 316 320 320 318 312 311 308 303 311 288 303 307 302 298 293 293 264 266 264 268 270
200 204 197 208 220 222 231 229 242 248 261 277 298 273 266 261 285 289 293 296 302 308 311 312 309 304 298 298 303 295 282 279 290 297 295 294 295 291 282 278 274 271 270
201 209 210 209 220 238 239 254 257 252 253 256 262 267 267 280 285 281 278 291 298 302 302 302 301 299 297 293 291 294 289 285 280 279 288 295 296 289 290 286 287 289 274
205 209 217 214 218 234 244 249 258 271 267 258 257 271 277 275 267 265 276 279 281 290 296 297 297 295 294 294 292 289 283 284 286 284 283 284 284 287 286 281 271 268 275
Wind_Speed_850mb
8 8 14 10 9 11 15 13 16 17 13 10 12 16 17 10 17 24 23 21 24 24 24 23 25 26 27 28 31 36 41 45 43 44 47 48 41 41 39 32 31 31 32
11 11 13 13 11 7 12 13 18 19 15 13 10 7 7 15 10 11 12 15 15 18 18 17 18 20 21 22 27 31 37 43 46 41 31 43 42 36 39 37 28 32 32
13 1 16 14 11 12 12 13 17 19 18 16 15 14 12 13 13 12 11 8 12 13 17 17 16 15 17 19 22 27 33 37 39 36 27 34 35 38 33 31 27 23 29
10 15 8 15 13 13 12 13 15 16 17 17 17 17 17 17 16 14 12 10 8 9 10 12 15 16 15 15 17 22 28 32 32 32 21 24 28 39 35 29 25 24 17
23 16 5 11 11 12 12 12 12 13 14 15 16 16 16 16 16 16 17 16 13 10 10 10 11 13 15 15 15 16 22 28 27 23 23 22 22 32 36 32 25 24 21
18 6 14 12 12 13 13 13 11 12 13 13 14 15 15 16 16 17 19 20 19 18 17 16 15 14 17 16 16 16 14 18 22 23 15 22 20 26 29 33 28 23 22
20 2 13 16 17 18 19 19 18 18 20 20 19 16 16 16 15 16 17 18 19 19 21 21 22 22 22 21 18 16 13 15 19 14 10 17 23 23 21 26 28 24 20
9 6 4 16 15 17 18 15 18 17 13 13 15 16 16 14 13 15 16 18 18 23 23 24 25 26 26 26 26 24 18 9 14 12 7 15 20 21 14 17 20 23 20
17 15 3 6 9 10 11 11 9 10 11 12 14 16 15 12 9 8 14 15 17 19 17 19 21 21 24 26 27 27 28 19 6 4 5 17 22 21 13 9 11 13 18
20 20 13 16 6 3 11 8 8 8 10 9 15 16 15 8 10 9 13 13 16 21 17 18 19 19 20 22 24 26 24 22 26 15 18 18 22 20 14 9 10 8 8
20 29 24 17 8 10 7 7 8 10 8 7 8 16 12 12 13 10 12 12 16 18 20 20 19 15 8 14 16 19 17 17 19 17 20 22 25 21 15 13 14 12 10
27 16 29 11 14 7 5 6 5 3 7 5 12 12 6 9 11 13 12 13 13 15 16 19 19 20 19 17 14 12 12 13 13 14 25 26 31 25 18 16 15 17 19
36 25 11 15 12 11 7 11 15 6 4 13 16 5 8 6 6 6 12 14 14 15 16 19 20 23 22 20 17 13 13 12 13 11 23 31 37 30 24 22 19 18 21
39 30 19 17 11 13 12 18 16 13 11 7 9 7 6 8 9 13 16 18 21 22 22 23 24 25 23 21 18 21 19 17 16 18 26 34 40 38 34 30 27 25 22
26 27 26 21 24 18 21 22 20 15 11 7 10 11 12 14 15 15 17 20 23 25 26 27 27 30 28 26 25 25 23 24 23 23 26 35 38 39 35 32 34 31 30
23 23 31 25 25 23 19 19 19 18 9 11 13 15 15 14 14 13 15 21 24 28 29 32 35 36 37 37 35 31 28 27 27 29 29 30 35 37 40 35 32 36 37
25 27 26 30 25 24 23 19 14 14 14 14 13 13 12 11 11 11 14 19 25 29 32 37 40 42 43 44 45 43 37 35 35 34 32 33 36 38 39 39 37 32 36
34 32 34 28 27 27 19 14 15 15 13 10 7 6 5 6 8 10 16 21 26 31 36 40 45 48 50 55 56 50 45 46 45 37 32 35 38 40 41 41 42 42 38
31 35 33 32 28 21 14 17 14 13 10 9 6 6 4 3 7 12 16 20 27 32 35 40 44 49 56 60 59 52 51 46 43 42 43 33 31 35 36 40 48 44 43
29 33 22 30 27 27 25 20 19 16 13 10 11 13 11 14 13 15 18 22 28 33 37 42 46 50 54 58 55 52 48 53 35 21 21 23 33 29 32 42 44 41 38
30 28 25 30 29 25 24 25 17 15 13 15 18 19 17 20 22 24 25 26 29 35 41 44 48 54 60 57 53 52 58 23 37 22 33 30 31 38 25 33 35 40 43
32 30 28 25 27 28 22 17 7 12 12 18 21 28 26 28 27 27 27 32 34 38 44 46 51 56 58 54 49 51 27 52 4 13 18 27 37 43 50 39 43 35 35
33 31 27 28 31 28 22 19 28 29 25 31 30 35 33 30 30 33 35 37 39 43 47 50 53 52 51 53 49 32 23 16 58 62 57 56 51 47 46 49 52 48 49
32 30 29 26 25 27 26 30 31 27 26 19 21 17 16 26 38 37 39 41 47 49 51 53 53 53 53 56 50 44 44 52 59 61 70 70 64 60 54 60 59 59 61
31 28 29 26 26 25 27 32 33 32 32 32 35 38 39 42 32 33 37 46 49 49 54 58 58 56 54 55 55 57 57 58 57 62 71 69 59 48 46 45 54 55 56
28 31 28 32 29 30 33 37 37 37 39 39 35 35 32 31 31 39 43 43 48 57 61 62 59 58 58 59 60 59 60 62 65 61 68 66 66 66 60 60 64 61 55
Wind_Direction_850mb
179 141 137 97 100 73 57 60 65 71 86 93 81 74 56 66 69 68 66 63 63 65 65 64 62 63 62 57 48 53 56 60 61 47 38 27 40 53 58 74 74 71 73
165 120 132 113 99 61 67 71 66 67 73 78 76 71 41 36 63 57 50 56 60 56 59 58 57 57 48 47 47 52 61 65 55 46 29 16 19 50 56 62 74 77 70
167 176 130 118 90 85 88 76 71 70 71 72 68 66 58 46 54 56 49 54 53 49 55 48 45 46 45 44 44 49 56 72 62 60 48 19 25 40 55 58 64 80 76
122 140 104 119 90 96 100 87 79 74 72 71 67 64 61 57 57 55 50 47 59 48 42 49 46 30 36 35 37 48 58 65 57 52 50 36 22 33 44 49 54 57 93
159 186 205 134 100 100 95 92 88 82 74 69 66 60 57 57 57 55 52 51 51 40 27 18 11 10 15 20 26 40 65 69 49 45 10 25 7 23 39 44 48 52 65
169 175 156 137 115 106 102 94 86 82 78 67 61 56 50 47 50 52 47 43 41 39 35 24 13 1 350 2 5 24 42 71 63 46 1 13 356 9 37 37 43 50 56
161 173 128 118 107 103 101 81 87 89 83 73 63 57 53 52 50 47 45 41 36 34 34 30 24 21 17 11 4 10 27 76 65 47 327 340 333 355 28 35 38 40 48
132 143 131 127 117 110 111 95 93 89 74 57 54 47 43 44 44 47 52 52 41 34 34 32 30 27 25 24 19 13 8 12 94 47 327 318 326 348 11 30 35 37 35
152 166 11 119 107 120 115 107 97 73 61 52 52 28 19 17 21 17 22 26 21 8 4 7 9 11 16 14 16 17 18 19 64 345 350 315 312 323 331 353 19 32 31
164 194 196 163 155 189 154 121 79 36 15 24 18 10 345 355 5 8 1 357 4 354 351 359 1 1 10 6 7 10 26 17 3 39 322 293 298 313 312 307 318 342 5
172 178 150 168 194 189 141 127 47 18 13 346 7 53 47 359 10 21 359 350 353 346 349 351 355 351 355 346 2 10 22 10 351 340 307 297 302 314 307 303 288 296 309
162 160 155 222 220 153 219 118 58 318 92 83 114 115 32 27 36 12 9 8 358 355 352 350 348 340 338 341 337 346 331 333 335 334 317 307 305 309 311 306 296 280 279
178 159 217 247 197 231 242 91 70 83 83 136 113 90 120 80 37 48 20 30 27 22 14 9 8 1 1 358 348 339 313 305 303 287 300 300 295 297 293 296 297 288 271
172 177 123 151 190 182 159 154 169 166 174 151 150 150 122 104 74 55 44 39 35 30 23 17 10 360 359 353 347 326 324 313 293 278 280 279 286 294 292 286 280 283 282
161 173 185 173 175 189 163 184 173 161 188 162 128 118 99 89 81 63 45 38 32 28 21 15 6 0 354 348 339 335 331 323 316 300 288 289 295 302 302 288 279 275 270
172 165 179 175 162 173 175 186 187 184 173 141 128 114 106 94 79 73 50 38 30 25 21 16 9 2 357 350 344 337 328 317 308 303 303 302 302 301 303 302 286 274 269
185 173 164 171 164 170 185 197 174 161 158 144 129 116 104 94 80 56 38 28 21 17 11 7 2 358 353 348 342 335 326 320 315 311 302 294 293 294 296 296 298 289 276
173 167 180 169 167 185 208 174 161 160 153 146 150 140 110 73 46 28 13 6 7 3 359 357 353 350 347 345 339 334 323 316 313 310 310 304 298 295 295 296 294 293 283
178 182 197 166 178 182 174 161 167 166 166 192 208 230 245 320 355 346 348 349 349 349 348 346 344 343 342 340 335 328 320 316 318 309 298 303 312 308 298 294 296 295 287
178 194 203 164 181 189 181 174 189 192 194 207 217 251 285 292 311 321 329 330 332 336 337 337 337 337 336 334 327 323 322 320 321 328 338 326 306 300 300 297 306 305 299
184 188 182 180 189 189 183 199 196 209 228 240 234 249 252 267 297 307 314 317 321 324 328 332 330 329 330 331 325 322 320 334 319 301 286 273 263 271 283 297 295 300 302
188 189 190 186 190 204 197 211 202 268 250 271 274 272 277 281 283 292 297 301 308 314 321 325 326 325 323 325 320 321 322 318 99 273 268 263 274 280 287 277 278 271 274
195 193 194 198 203 211 225 200 218 217 225 238 262 280 283 281 286 290 294 298 303 310 316 320 320 318 312 311 308 303 311 288 303 307 302 298 293 293 264 266 264 268 270
200 204 197 208 220 222 231 229 242 248 261 277 298 273 266 261 285 289 293 296 302 308 311 312 309 304 298 298 303 295 282 279 290 297 295 294 295 291 282 278 274 271 270
201 209 210 209 220 238 239 254 257 252 253 256 262 267 267 280 285 281 278 291 298 302 302 302 301 299 297 293 291 294 289 285 280 279 288 295 296 289 290 286 287 289 274
205 209 217 214 218 234 244 249 258 271 267 258 257 271 277 275 267 265 276 279 281 290 296 297 297 295 294 294 292 289 283 284 286 284 283 284 284 287 286 281 271 268 275